FENGYUN 1C DEB, 31623

Orbit data source: Space-Track

FENGYUN 1C DEB, 31623 is space debris in SSO originally from a launch on Mon, 10 May 1999 UTC launched from the Taiyaun Space Center, China (TSC). Fengyun 1C debris stems from the Chinese weather satellite Fengyun-1C, which was intentionally destroyed by a Chinese anti-satellite missile in 2007. This event dramatically increased the amount of space debris, with thousands of trackable fragments posing hazards to satellites and human spaceflight. The Fengyun 1C debris cloud has become a focal point in discussions about space sustainability and the need for international regulations to prevent the creation of new debris.

Loading next visibility...
Identifier
31623, 1999-025CAD
Orbit
SSO
Country
Flag of CNCN / PRC
Related business
Manufacturer
Unknown
Mission
Spacecraft
Bus & Motor
Unknown
Mass
Unknown
Launch date (UTC)
1999-05-10 (27 years ago)
Launch vehicle
Unknown
Launch site
Taiyaun Space Center, China (TSC)
Object type
Payload
Rocket body
Debris
Shape & HBR
Unknown shape, 0.1 m
Radar Cross Section
Small (<0.1 m²)

Expand to show TLE details & history
Last TLE update: 1 week ago

TLE from 1 week ago
0 FENGYUN 1C DEB
1 31623U 99025CAD 26199.70574187  .00000158  00000-0  14866-3 0  9998
2 31623  97.6268  15.1757 0195240 117.6344 244.4786 13.82791594609322
Epoch: 2026-07-18T16:56Z
TLE epoch observation values (Epoch: 2026-07-18T16:56:16.097Z)
Latitude
0.00004°
Longitude
-175.40603°
Altitude
1,020.837 km
Speed
7.309 km/s
True Right ascension
01h 00m 42s
True Declination
0° 00' 00"
Sunlit
Object was in daylight at epoch
Visualization orbit readout
Latitude
Unknown
Longitude
Unknown
Altitude
Unknown
Speed
Unknown
Apparent Right ascension
Unknown
Apparent Declination
Unknown
Sunlit
N/A
Visualization observer readout
Local Sidereal Time
02:15:54
Azimuth
Unknown
Elevation
Unknown
Doppler factor
Unknown
Orbital elements
Apogee altitude
1,094.258 km
Perigee altitude
808.064 km
Semi-major axis
7,329.298 km
Eccentricity
0.01952
Inclination
97.6268°
RAAN
15.1757°
Arg. of periapsis
117.6344°
True anomaly
242.48104°
Mean anomaly
244.4786°
Eccentric anomaly
243.47768°
Mean motion
3.45899 °/min
Orbital period
104.08 mins
BSTAR
0.00014866
Loading maneuver chart data...
Computing Atmospheric mass density...

Documentation

Showing up to 5 results
|